User: anonymous   Login
Location: Arrakis Observatory
(44.1122°N, 95.7153°W)
Time: 05:22:15
(UTC-05:00)
Language:

Iridium 35 - Orbit

View from above orbital plane
View from above orbital plane
View from above satellite
View from above satellite

Ground track
Ground track

The orbit data is extracted from the following two-line orbital elements,

1 24966U 97056B   16273.89864290 -.00000000 +00000-0 -71904-5 0  9997
2 24966 086.3936 067.5093 0001971 089.2074 270.9348 14.34213756994935
Epoch (UTC): 29 September 2016 21:34:02
Eccentricity: 0.0001971
inclination: 86.3936°
perigee height: 776 km
apogee height: 779 km
right ascension of ascending node: 67.5093°
argument of perigee: 89.2074°
revolutions per day: 14.34213756
mean anomaly at epoch: 270.9348°
orbit number at epoch: 99493

The dashed part of the orbit path shows where the satellite is in the earth's shadow,  

DLR